[[{"header":{"parameterUnit":"m.s-1","parameterCategory":1,"la1":30.2991,"la2":30.254,"lo1":-89.0895,"lo2":-89.0444,"dy":0.0017,"dx":0.0017,"nx":28,"ny":28,"refTime":"2025-03-29T21:00:00:Z","depth":0,"parameterNumber":2,"parameterNumberName":"U-component_of_WINDS"},"data":[0,0,0,0,0,0,0,0,0,0,0,0,0,0,0,0,0,0,0,0,0,0,0,0,0,0,0,0,0,0,0,0,0,0,0,0,0,0,0,0,0,0,0,0,0,0,0,0,0,0,0,0,0,0,0,0,0,0,-5.7155,-5.7155,0,-5.7203,-5.7204,-5.7204,-5.7189,-5.7188,-5.7187,-5.7186,-5.7233,-5.7236,-5.7238,0,0,0,0,0,0,0,0,0,0,0,0,0,-5.7048,-5.705,-5.7155,-5.7155,-5.7156,-5.7203,-5.7204,-5.7205,-5.7189,-5.7188,-5.7187,-5.7185,-5.7233,-5.7235,-5.7238,0,0,0,0,0,0,0,0,0,0,0,0,0,-5.7095,-5.7051,-5.7154,-5.7154,-5.7154,-5.7203,-5.7204,-5.7205,-5.7189,-5.7188,-5.7186,-5.7185,-5.7232,-5.7235,-5.7238,-5.729,0,0,-5.7249,-5.725,0,0,0,0,0,0,0,0,-5.7093,-5.7099,-5.7153,-5.7154,-5.7155,-5.7189,-5.7184,-5.7233,-5.719,-5.7176,-5.7186,-5.7184,-5.722,-5.7224,-5.7236,-5.7292,-5.7294,-5.7249,-5.7251,-5.7252,-5.7253,0,0,0,0,0,0,0,-5.7089,-5.7097,-5.7174,-5.7154,-5.7155,-5.7151,-5.7156,-5.7193,-5.7206,-5.7177,-5.7176,-5.7182,-5.722,-5.7233,-5.7237,-5.7295,-5.7249,-5.7252,-5.7254,-5.7255,-5.7398,-5.7399,0,0,0,0,0,0,-5.7086,-5.7094,-5.7172,-5.7175,-5.7119,-5.7154,-5.716,-5.7179,-5.7205,-5.7208,-5.7184,-5.7181,-5.7228,-5.7233,-5.7239,-5.7301,-5.7252,-5.7255,-5.7257,-5.7396,-5.7398,-5.74,0,0,0,0,0,0,-5.7084,-5.7093,-5.717,-5.7135,-5.7144,-5.7158,-5.718,-5.7181,-5.7194,-5.721,-5.7212,-5.7195,-5.7227,-5.7234,-5.7278,-5.7303,-5.7257,-5.726,-5.7394,-5.7396,-5.7399,-5.7426,0,0,0,0,0,0,-5.7081,-5.7092,-5.7111,-5.7135,-5.7146,-5.7208,-5.7181,-5.7183,-5.72,-5.7198,-5.7221,-5.7224,-5.7227,-5.7273,-5.7281,-5.7306,-5.7263,-5.7391,-5.7395,-5.7398,-5.7423,-5.7429,-5.7435,0,0,0,0,0,-5.7077,-5.7116,-5.7113,-5.7122,-5.7171,-5.721,-5.7216,-5.7219,-5.7202,-5.7222,-5.7233,-5.7223,-5.73,-5.7278,-5.7287,-5.7313,-5.739,-5.7394,-5.7398,-5.742,-5.7428,-5.7435,0,0,0,0,0,0,-5.7093,-5.7119,-5.7115,-5.7164,-5.7185,-5.7207,-5.7231,-5.7227,-5.7252,-5.7248,-5.7251,-5.7256,-5.7301,-5.7312,-5.7287,-5.7366,-5.7342,-5.7348,-5.7356,-5.7364,-5.737,-5.7365,-5.7265,0,0,0,0,0,-5.7103,-5.7133,-5.7154,-5.7194,-5.7206,-5.7217,-5.7234,-5.7235,-5.7257,-5.7265,-5.7279,-5.73,-5.7329,-5.7347,-5.7375,-5.7426,-5.7431,-5.7449,-5.7455,-5.746,-5.7464,-5.7493,-5.7501,-5.7413,-5.7413,-5.7413,0,0,-5.7122,-5.714,-5.7158,-5.7198,-5.7215,-5.7245,-5.7224,-5.7257,-5.728,-5.727,-5.7312,-5.7323,-5.7347,-5.7395,-5.7417,-5.7405,-5.749,-5.7465,-5.7469,-5.747,-5.7498,-5.7506,-5.7513,-5.7416,-5.7415,-5.7415,0,0,-5.7172,-5.7189,-5.7225,-5.7243,-5.7269,-5.7278,-5.7287,-5.7311,-5.7318,-5.7361,-5.7355,-5.7382,-5.7432,-5.7449,-5.7465,-5.7527,-5.7519,-5.7536,-5.7565,-5.7594,-5.7601,-5.7607,-5.7628,-5.7636,-5.7541,-5.7541,-5.7541,0,-5.7192,-5.7238,-5.7244,-5.7279,-5.7297,-5.7292,-5.7328,-5.7345,-5.7379,-5.7391,-5.7379,-5.7443,-5.7458,-5.7511,-5.7526,-5.7539,-5.7549,-5.7531,-5.7599,-5.7606,-5.7611,-5.7632,-5.764,-5.7543,-5.7543,-5.7542,-5.7542,0,-5.7261,-5.7294,-5.732,-5.7355,-5.7376,-5.7411,-5.7423,-5.7444,-5.7445,-5.7455,-5.75,-5.7519,-5.7551,-5.7564,-5.7564,-5.7617,-5.761,-5.7599,-5.7574,-5.7621,-5.7641,-5.7649,-5.7545,-5.7545,-5.7544,-5.7544,0,0,-5.7318,-5.7359,-5.7368,-5.7384,-5.7415,-5.744,-5.7477,-5.751,-5.7527,-5.7552,-5.7582,-5.7627,-5.7618,-5.7635,-5.7638,-5.7663,-5.7711,-5.7649,-5.765,-5.7659,-5.7771,-5.7778,-5.7786,-5.7708,-5.7709,-5.7711,-5.7769,0,-5.737,-5.7434,-5.7442,-5.7499,-5.753,-5.7528,-5.756,-5.7582,-5.7594,-5.7621,-5.7634,-5.7665,-5.7651,-5.7662,-5.7687,-5.77,-5.7733,-5.7696,-5.7735,-5.7736,-5.7726,-5.7797,-5.7803,-5.7857,-5.7776,-5.7778,-5.7779,0,-5.7437,-5.7466,-5.7526,-5.7555,-5.7568,-5.7597,-5.7629,-5.7656,-5.7682,-5.7689,-5.7711,-5.7711,-5.775,-5.7727,-5.778,-5.7754,-5.7772,-5.7781,-5.7783,-5.7785,-5.7758,-5.7798,-5.7874,-5.7881,-5.7791,-5.779,-5.7789,0,-5.7472,-5.7526,-5.7569,-5.7583,-5.7618,-5.7638,-5.7654,-5.7679,-5.7699,-5.7727,-5.774,-5.7773,-5.779,-5.7815,-5.7825,-5.7807,-5.7877,-5.7855,-5.7883,-5.7883,-5.7895,-5.7893,-5.7972,-5.791,-5.791,-5.791,-5.7909,0,-5.7527,-5.7563,-5.7585,-5.7611,-5.7653,-5.7663,-5.7704,-5.7719,-5.7742,-5.7771,-5.7773,-5.78,-5.7812,-5.7842,-5.785,-5.7893,-5.7901,-5.7907,-5.7908,-5.7906,-5.7905,-5.7914,-5.791,-5.7912,-5.7911,-5.7911,-5.791,0,-5.757,-5.7586,-5.7633,-5.7664,-5.7673,-5.7702,-5.7728,-5.7754,-5.7768,-5.7805,-5.7814,-5.7834,-5.787,-5.7883,-5.7926,-5.7932,-5.798,-5.798,-5.7971,-5.7971,-5.7998,-5.7994,-5.8084,-5.8096,-5.8027,-5.8028,-5.8029,0,-5.7603,-5.7631,-5.7667,-5.7687,-5.7704,-5.7737,-5.7758,-5.7771,-5.7793,-5.7827,-5.7849,-5.7885,-5.7914,-5.7971,-5.7989,-5.8022,-5.8021,-5.8051,-5.8026,-5.8023,-5.802,-5.8017,-5.802,-5.8054,-5.8055,-5.8055,-5.8056,0,-5.7659,-5.7667,-5.7698,-5.7733,-5.7759,-5.7786,-5.7813,-5.783,-5.7847,-5.7872,-5.7909,-5.7932,-5.7978,-5.8013,-5.8048,-5.8064,-5.8063,-5.8064,-5.8072,-5.8068,-5.8061,-5.8064,-5.7981,-5.8061,-5.806,-5.806,-5.806,-5.8059,-5.7697,-5.7723,-5.7753,-5.7788,-5.781,-5.7836,-5.7863,-5.7881,-5.7912,-5.795,-5.7957,-5.7996,-5.8025,-5.8072,-5.809,-5.8122,-5.8114,-5.8125,-5.8128,-5.813,-5.8131,-5.8059,-5.8128,-5.8128,-5.8128,-5.8128,-5.8128,0,-5.7752,-5.7773,-5.7805,-5.7844,-5.7872,-5.7872,-5.7902,-5.7926,-5.7961,-5.7988,-5.8018,-5.8062,-5.8097,-5.812,-5.8156,-5.8177,-5.8177,-5.8186,-5.8183,-5.8187,-5.8137,-5.8126,-5.8185,-5.8185,-5.8185,-5.8185,-5.8185,-5.8185,-5.7784,-5.7828,-5.784,-5.7896,-5.7915,-5.7955,-5.7973,-5.7997,-5.8019,-5.8068,-5.8098,-5.8114,-5.814,-5.8178,-5.8211,-5.8217,-5.823,-5.8239,-5.8244,-5.8196,-5.819,-5.8184,-5.8174,-5.8242,-5.8242,-5.829,-5.8291,-5.8291]},{"header":{"parameterUnit":"m.s-1","parameterCategory":1,"la1":30.2991,"la2":30.254,"lo1":-89.0895,"lo2":-89.0444,"dy":0.0017,"dx":0.0017,"nx":28,"ny":28,"refTime":"2025-03-29T21:00:00:Z","depth":0,"parameterNumber":3,"parameterNumberName":"V-component_of_WINDS"},"data":[0,0,0,0,0,0,0,0,0,0,0,0,0,0,0,0,0,0,0,0,0,0,0,0,0,0,0,0,0,0,0,0,0,0,0,0,0,0,0,0,0,0,0,0,0,0,0,0,0,0,0,0,0,0,0,0,0,0,5.198,5.198,0,5.2016,5.2016,5.2017,5.2047,5.2047,5.2047,5.2048,5.2082,5.2083,5.2083,0,0,0,0,0,0,0,0,0,0,0,0,0,5.1939,5.194,5.198,5.198,5.1981,5.2016,5.2016,5.2017,5.2047,5.2047,5.2047,5.2048,5.2082,5.2083,5.2083,0,0,0,0,0,0,0,0,0,0,0,0,0,5.1964,5.194,5.198,5.2,5.2002,5.2016,5.2016,5.2017,5.2047,5.2047,5.2048,5.2048,5.2082,5.2083,5.2084,5.2079,0,0,5.2086,5.2087,0,0,0,0,0,0,0,0,5.1963,5.1966,5.1996,5.1999,5.2001,5.2027,5.2015,5.2038,5.2046,5.203,5.2048,5.2048,5.2063,5.2066,5.2071,5.2081,5.2082,5.2086,5.2087,5.2087,5.2088,0,0,0,0,0,0,0,5.1961,5.1964,5.1994,5.1997,5.2,5.2008,5.2012,5.2019,5.2043,5.2031,5.2033,5.2037,5.2065,5.207,5.2072,5.2083,5.2086,5.2087,5.2088,5.2088,5.2098,5.2098,0,0,0,0,0,0,5.1956,5.1962,5.1993,5.1995,5.1983,5.2008,5.2013,5.2018,5.2043,5.2048,5.2037,5.2039,5.2069,5.2071,5.2074,5.2075,5.2087,5.2088,5.2089,5.2098,5.2098,5.2098,0,0,0,0,0,0,5.1955,5.1958,5.1991,5.198,5.1984,5.2009,5.2014,5.2019,5.2025,5.2048,5.2052,5.2038,5.2069,5.2072,5.208,5.2076,5.2089,5.2089,5.2099,5.2098,5.2098,5.2074,0,0,0,0,0,0,5.1954,5.1958,5.1955,5.1979,5.1985,5.1995,5.2014,5.2019,5.2026,5.2029,5.205,5.2054,5.207,5.2078,5.208,5.2078,5.209,5.2099,5.2099,5.2098,5.2075,5.2073,5.2071,0,0,0,0,0,5.1952,5.1945,5.1955,5.1958,5.1982,5.1995,5.1998,5.2017,5.2026,5.2025,5.2041,5.2053,5.2077,5.2078,5.2081,5.2079,5.2099,5.2099,5.2098,5.2076,5.2073,5.2071,0,0,0,0,0,0,5.1917,5.1948,5.1959,5.196,5.1975,5.2,5.1998,5.2013,5.2024,5.2026,5.2049,5.2054,5.2059,5.207,5.2071,5.208,5.209,5.209,5.2072,5.207,5.2068,5.2065,5.2091,0,0,0,0,0,5.191,5.1918,5.1944,5.1942,5.195,5.1973,5.1979,5.1993,5.2009,5.2015,5.2031,5.2046,5.2058,5.2064,5.2075,5.2078,5.2085,5.2078,5.2076,5.2074,5.2074,5.2081,5.208,5.2096,5.2096,5.2096,0,0,5.1894,5.1912,5.1915,5.1936,5.1949,5.1959,5.1978,5.1985,5.1993,5.2016,5.2025,5.2038,5.2057,5.2063,5.2066,5.2072,5.2071,5.2073,5.2071,5.2072,5.208,5.2079,5.2077,5.2095,5.2095,5.2095,0,0,5.187,5.1883,5.1886,5.19,5.1922,5.1939,5.194,5.1964,5.1975,5.1984,5.2004,5.2014,5.2031,5.2046,5.2055,5.2046,5.2059,5.2049,5.2037,5.2044,5.2043,5.2042,5.2042,5.2041,5.2048,5.2048,5.2048,0,5.1847,5.1861,5.1885,5.1893,5.1904,5.1929,5.1934,5.1946,5.1969,5.1977,5.1983,5.2011,5.2024,5.2037,5.2036,5.2041,5.2045,5.2046,5.2041,5.204,5.204,5.204,5.2039,5.2047,5.2047,5.2047,5.2047,0,5.1834,5.1845,5.1844,5.187,5.1881,5.1886,5.1913,5.1921,5.1936,5.1953,5.1966,5.1985,5.2003,5.2007,5.2019,5.2023,5.2027,5.2037,5.2047,5.2037,5.2037,5.2037,5.2045,5.2046,5.2046,5.2046,0,0,5.1784,5.1829,5.1828,5.1843,5.1872,5.1881,5.189,5.191,5.1919,5.1936,5.1946,5.1964,5.1976,5.1987,5.2003,5.2009,5.2005,5.2019,5.202,5.2018,5.2015,5.2008,5.2007,5.2015,5.2015,5.2015,5.2014,0,5.1767,5.1786,5.1811,5.1821,5.1834,5.1862,5.1871,5.1891,5.1908,5.1922,5.1942,5.1956,5.1968,5.1976,5.1984,5.2004,5.2005,5.2004,5.2027,5.2027,5.2022,5.2007,5.1998,5.1996,5.2014,5.2014,5.2014,0,5.1747,5.1767,5.178,5.1815,5.1821,5.1828,5.1852,5.1864,5.189,5.1903,5.1919,5.1937,5.1952,5.1962,5.1984,5.1983,5.1994,5.2006,5.2007,5.201,5.202,5.2012,5.1996,5.1996,5.2014,5.2014,5.2014,0,5.1714,5.1743,5.1757,5.1768,5.1807,5.1813,5.1829,5.1855,5.1868,5.1889,5.1899,5.192,5.1932,5.195,5.1975,5.198,5.1996,5.2007,5.2009,5.2008,5.201,5.201,5.1998,5.2015,5.2015,5.2015,5.2015,0,5.1692,5.17,5.1743,5.1751,5.1763,5.1793,5.1803,5.1822,5.1846,5.186,5.1885,5.1898,5.193,5.1948,5.1968,5.1985,5.199,5.2002,5.2007,5.2,5.1999,5.2008,5.2009,5.2015,5.2015,5.2015,5.2015,0,5.1655,5.1684,5.1702,5.174,5.175,5.1757,5.179,5.18,5.1822,5.184,5.1846,5.188,5.1902,5.193,5.196,5.1974,5.1991,5.1997,5.1982,5.1986,5.1987,5.1988,5.1981,5.1983,5.1998,5.1998,5.1997,0,5.1639,5.1647,5.1688,5.1701,5.1717,5.1736,5.1751,5.1783,5.1797,5.1831,5.1838,5.1863,5.1884,5.192,5.1947,5.1972,5.1981,5.1978,5.1985,5.198,5.1985,5.1984,5.1987,5.1975,5.1975,5.1975,5.1974,0,5.161,5.1626,5.1647,5.1675,5.1693,5.1716,5.1739,5.1748,5.1785,5.1801,5.1826,5.1843,5.1878,5.1903,5.1933,5.1951,5.197,5.1973,5.1975,5.1968,5.196,5.1968,5.1979,5.1972,5.1972,5.1973,5.1973,5.1973,5.1585,5.1595,5.1628,5.1652,5.1675,5.1698,5.1712,5.1738,5.1759,5.1791,5.1809,5.1834,5.1865,5.1908,5.1926,5.1948,5.1954,5.1956,5.1957,5.1958,5.1957,5.1957,5.1953,5.1953,5.1953,5.1953,5.1953,0,5.1559,5.1584,5.1606,5.1641,5.1661,5.168,5.1709,5.1725,5.1748,5.1776,5.1799,5.183,5.1857,5.1889,5.1919,5.193,5.194,5.1937,5.1937,5.1942,5.1948,5.1944,5.1929,5.1929,5.1929,5.1929,5.1929,5.1929,5.1548,5.1569,5.159,5.1623,5.1647,5.1674,5.169,5.1713,5.1736,5.1771,5.1794,5.1816,5.1847,5.1881,5.1908,5.1917,5.1927,5.1922,5.1934,5.1939,5.1941,5.1943,5.194,5.1924,5.1924,5.1927,5.1927,5.1927]}]]